Location: Bambrugge
(50.9212°N, 3.9299°E)
Time: 20:18:26
(UTC+00:00)

SL-16 R/B - Pass Details

Date: 13 August 2024
Orbit: 842 x 845 km, 71.0° (Epoch: 10 September)

Event Time Altitude Azimuth Distance (km) Brightness Sun altitude
Exits shadow 22:17:36 26° 99° (E) 1,621 3.4 -21.8°
Drops below altitude 10° 22:21:55 10° 49° (NE) 2,474 4.8 -22.1°
Sets 22:24:44 0° 37° (NE) 3,415 5.8 -22.2°
